Location: Unspecified
(52.4292°N, 19.3359°E)
Time: 00:49:43
(UTC+02:00)

Altair - Pass Details

Date: 25 May 2024
Orbit: 1502 x 1682 km, 47.2° (Epoch: 20 June)

Event Time Altitude Azimuth Distance (km) Brightness Sun altitude
Rises 08:56:59 0° 200° (SSW) 4,778 10.0 37.3°
Reaches altitude 10° 09:00:38 10° 189° (S) 3,824 9.8 37.8°
Maximum altitude 09:08:20 27° 136° (SE) 2,755 10.2 38.9°
Drops below altitude 10° 09:16:14 10° 84° (E) 3,929 10.6 40.1°
Sets 09:20:01 0° 73° (ENE) 4,932 10.8 40.6°
